NOAA 16 DEB, 41708

Orbit data source: Space-Track

NOAA 16 DEB, 41708 is space debris in SSO originally from a launch on Thu, 21 Sep 2000 UTC launched from the Air Force Western Test Range (AFWTR). Debris objects in space refer to the collection of defunct objects orbiting the Earth. Examples of debris include non-operational satellites, rocket bodies, and fragments generated from explosions, collisions, or faulty payload assembly.

Loading next visibility...
Identifier
41708, 2000-055PN
Orbit
SSO
Country
Flag of USUS
Related business
Manufacturer
Unknown
Mission
Spacecraft
Bus & Motor
Unknown
Mass
Unknown
Launch date (UTC)
2000-09-21 (25 years ago)
Launch vehicle
Unknown
Launch site
Air Force Western Test Range (AFWTR)
Object type
Payload
Rocket body
Debris
Shape & HBR
Unknown shape, 0.1 m
Radar Cross Section
Small (<0.1 m²)

Expand to show TLE details & history
Last TLE update: 19 hours ago

TLE from 19 hours ago
0 NOAA 16 DEB
1 41708U 00055PN  26033.81800037  .00011096  00000-0  32764-2 0  9992
2 41708  98.8590 163.8337 0013768 179.7617 180.3581 14.43627259507567
Epoch: 2026-02-02T19:37Z
TLE epoch observation values (Epoch: 2026-02-02T19:37:55.231Z)
Latitude
-0.00004°
Longitude
96.34574°
Altitude
759.292 km
Speed
7.47 km/s
True Right ascension
10h 55m 20s
True Declination
0° 00' 00"
Sunlit
Object was in full shadow at epoch
Visualization orbit readout
Latitude
Unknown
Longitude
Unknown
Altitude
Unknown
Speed
Unknown
Apparent Right ascension
Unknown
Apparent Declination
Unknown
Sunlit
N/A
Visualization observer readout
Local Sidereal Time
16:48:32
Azimuth
Unknown
Elevation
Unknown
Doppler factor
Unknown
Orbital elements
Apogee altitude
753.479 km
Perigee altitude
733.868 km
Semi-major axis
7,121.81 km
Eccentricity
0.00138
Inclination
98.859°
RAAN
163.8337°
Arg. of periapsis
179.7617°
True anomaly
180.35712°
Mean anomaly
180.3581°
Eccentric anomaly
180.35761°
Mean motion
3.61125 °/min
Orbital period
99.69 mins
BSTAR
0.0032764
Loading maneuver chart data...
Computing Atmospheric mass density...
Loading historical data...
Loading historical data...
Loading historical data...
Loading historical data...
Loading historical data...
Loading historical data...
Loading historical data...

Documentation

Showing up to 5 results
|